Home > Weather > Québec > Past weeks

Flag for Canada Weather for the Past 2 Weeks in Québec, Quebec, Canada

Now
41 °F

More clouds than sun.


Feels Like: 37 °F
Forecast: 39 / 55 °F
Wind: 6 mph from Northeast

Location: Quebec Weather Station

Current Time: May 3, 2016 at 8:36:16 AM

Latest Report: May 3, 2016 at 7:00 AM


Visibility: 30 mi

Pressure: 29.96 "Hg

Humidity: 87%

Dew Point: 37 °F

Location of QuébecLocation

Historic Weather in Québec — Graph

°F

Québec Temperature Yesterday

Maximum temperature yesterday: 48 °F (at 12:00 AM)
Minimum temperature yesterday: 41 °F (at 5:00 AM)
Average temperature yesterday: 44 °F

High & Low Weather Summary for the Past Weeks

 TemperatureHumidityPressure
High68 °F (Apr 21, 4:00 PM)100% (Apr 22, 4:46 PM)30.37 "Hg (Apr 22, 4:46 PM)
Low23 °F (Apr 26, 5:00 AM)13% (Apr 30, 5:00 PM)29.75 "Hg (Apr 26, 5:00 PM)
Average41 °F47%30.06 "Hg
* Reported Apr 18 7:00 AM — May 3 7:00 AM, Québec, Weather by CustomWeather, © 2016

Note: Actual official high and low records may vary slightly from our data, if they occured in-between our weather recording intervals... More about our weather records

Advertising

Québec Weather History for the Previous 24 Hours

Scroll right to see more
 ConditionsComfort  
Time TempWeatherWind HumidityBarometerVisibility
7:00 AM
Tue, May 3
41 °FMore clouds than sun.6 mph87%29.96 "Hg30 mi
6:48 AM41 °FMore clouds than sun.5 mph93%29.96 "Hg30 mi
6:00 AM39 °FSprinkles. Low clouds.6 mph93%29.96 "Hg10 mi
5:00 AM39 °FSprinkles. Fog.3 mph93%29.95 "Hg4 mi
4:00 AM39 °FSprinkles. Fog.2 mph93%29.96 "Hg4 mi
3:00 AM39 °FSprinkles. Mostly cloudy.6 mph93%29.96 "Hg8 mi
2:00 AM39 °FMostly cloudy.7 mph93%29.97 "Hg10 mi
1:00 AM41 °FMostly cloudy.8 mph87%29.97 "Hg10 mi
12:00 AM41 °FMostly cloudy.10 mph87%29.96 "Hg10 mi
11:00 PM
Mon, May 2
41 °FSprinkles. Mostly cloudy.9 mph87%29.99 "Hg10 mi
10:00 PM41 °FSprinkles. Mostly cloudy.9 mph93%30.01 "Hg10 mi
9:00 PM41 °FSprinkles. Mostly cloudy.10 mph93%30.01 "Hg9 mi
8:00 PM43 °FSprinkles. More clouds than sun.10 mph87%30.02 "Hg6 mi
7:00 PM43 °FMostly cloudy.8 mph87%30.01 "Hg7 mi
6:50 PM43 °FSprinkles. Mostly cloudy.8 mph87%30.01 "Hg7 mi
6:00 PM43 °FSprinkles. More clouds than sun.8 mph87%30.01 "Hg6 mi
5:00 PM45 °FSprinkles. Mostly cloudy.10 mph81%30.02 "Hg8 mi
4:02 PM45 °FSprinkles. Mostly cloudy.13 mph76%30.03 "Hg15 mi
3:50 PM46 °FScattered showers. Mostly cloudy.10 mph71%30.02 "Hg15 mi
3:00 PM46 °FSprinkles. Mostly cloudy.10 mph66%30.03 "Hg25 mi
2:00 PM46 °FOvercast.9 mph66%30.05 "Hg30 mi
1:00 PM46 °FOvercast.13 mph62%30.06 "Hg30 mi
12:00 PM46 °FOvercast.15 mph66%30.07 "Hg30 mi
11:00 AM45 °FMostly cloudy.10 mph71%30.08 "Hg30 mi
10:00 AM45 °FMostly cloudy.9 mph76%30.10 "Hg30 mi
9:00 AM43 °FDrizzle. Mostly cloudy.9 mph81%30.10 "Hg30 mi
8:00 AM43 °FMostly cloudy.12 mph81%30.14 "Hg30 mi
Weather by CustomWeather, © 2016

See weather overviewHow to use our weather pages